KB1MIM Weather Reports


time (UTC)temp
C
wind
direction
speed
KPH
gust
KPH
rain 1hr
cm
rain 24hr
cm
rain mn
cm
humidity
%
barometer
mb
20220627201530 25 234 0.0 3.2 0.00 1.19 1.19 66 1011.4
20220627200028 25 128 0.0 3.2 0.00 1.19 1.19 77 1011.3
20220627194527 24 46 0.0 3.2 0.00 1.19 1.19 75 1011.3
20220627193033 24 39 0.0 1.6 0.00 1.19 1.19 85 1011.5
20220627191534 23 215 0.0 0.0 0.00 1.19 1.19 87 1011.3
20220627190022 23 215 0.0 1.6 0.00 1.19 1.19 90 1011.4
20220627184522 23 81 0.0 0.0 0.00 1.19 1.19 92 1011.5
20220627183019 23 81 0.0 0.0 0.03 1.19 1.19 93 1011.6
20220627181517 23 81 0.0 1.6 0.10 1.19 1.19 94 1011.6
20220627180015 22 81 0.0 1.6 0.10 1.19 1.19 96 1011.5
20220627174512 22 108 0.0 0.0 0.46 1.19 1.19 95 1011.6
20220627173012 22 44 0.0 1.6 0.91 1.17 1.17 95 1011.8
20220627171520 21 44 0.0 0.0 0.89 1.09 1.09 95 1011.8
20220627170010 21 44 0.0 1.6 0.91 1.09 1.09 94 1011.7
20220627164517 22 77 0.0 0.0 0.53 0.71 0.71 95 1012.0
20220627163008 22 78 0.0 0.0 0.03 0.20 0.20 94 1011.9
20220627161512 22 88 0.0 0.0 0.03 0.20 0.20 94 1011.7
20220627160010 22 100 0.0 0.0 0.00 0.18 0.18 94 1011.7
20220627154502 22 101 0.0 1.6 0.05 0.18 0.18 94 1011.5
20220627153004 22 89 0.0 1.6 0.10 0.18 0.18 94 1011.4
20220627151501 21 108 0.0 1.6 0.18 0.18 0.18 94 1011.4
20220627150002 21 106 0.0 4.8 0.18 0.18 0.18 94 1011.4
20220627144602 21 138 0.0 0.0 0.15 0.15 0.15 92 1011.2
20220627143101 22 84 0.0 3.2 0.08 0.08 0.08 89 1011.3
20220627141557 22 89 0.0 1.6 0.00 0.00 0.00 87 1011.1
20220627140105 22 110 0.0 3.2 0.00 0.00 0.00 87 1011.2
20220627134557 22 158 0.0 1.6 0.00 0.00 0.00 88 1011.3
20220627133056 21 198 0.0 1.6 0.00 0.00 0.00 89 1011.5
20220627131606 21 110 0.0 1.6 0.00 0.00 0.00 89 1011.5
20220627130054 21 214 0.0 6.4 0.00 0.00 0.00 88 1011.5
20220627124554 21 84 0.0 9.7 0.00 0.00 0.00 87 1011.3
20220627123052 21 91 0.0 8.0 0.00 0.00 0.00 84 1011.4
20220627121551 22 92 0.0 3.2 0.00 0.00 0.00 83 1011.3
20220627120051 22 68 0.0 4.8 0.00 0.00 0.00 82 1011.3
20220627114557 21 79 0.0 4.8 0.00 0.00 0.00 82 1011.2
20220627113105 21 88 0.0 4.8 0.00 0.00 0.00 82 1011.2
20220627111548 21 129 0.0 3.2 0.00 0.00 0.00 82 1011.3
20220627110049 21 77 0.0 3.2 0.00 0.00 0.00 82 1011.3
20220627104548 21 238 0.0 4.8 0.00 0.00 0.00 82 1011.4
20220627103047 21 79 0.0 4.8 0.00 0.00 0.00 82 1011.4
20220627101548 21 203 0.0 4.8 0.00 0.00 0.00 81 1011.5
20220627100046 21 101 0.0 3.2 0.00 0.00 0.00 81 1011.5
20220627094543 21 122 0.0 1.6 0.00 0.00 0.00 81 1011.7
20220627093039 20 203 0.0 1.6 0.00 0.00 0.00 81 1011.8
20220627091538 20 139 0.0 1.6 0.00 0.00 0.00 80 1012.0
20220627090037 20 91 0.0 0.0 0.00 0.00 0.00 80 1012.0
20220627084536 20 102 0.0 1.6 0.00 0.00 0.00 79 1012.1
20220627083033 20 126 0.0 1.6 0.00 0.00 0.00 79 1012.4
20220627081533 20 223 0.0 3.2 0.00 0.00 0.00 78 1012.4
20220627080038 20 171 0.0 1.6 0.00 0.00 0.00 77 1012.6
20220627074529 21 126 0.0 4.8 0.00 0.00 0.00 75 1012.7
20220627073027 21 113 0.0 3.2 0.00 0.00 0.00 75 1012.8
20220627071529 20 71 0.0 4.8 0.00 0.00 0.00 75 1013.0
20220627070023 21 125 0.0 1.6 0.00 0.00 0.00 74 1013.3
20220627064522 21 190 0.0 8.0 0.00 0.00 0.00 74 1013.4
20220627063019 21 120 0.0 1.6 0.00 0.00 0.00 74 1013.5
20220627061517 21 98 0.0 1.6 0.00 0.00 0.00 72 1013.8
20220627060019 21 125 0.0 0.0 0.00 0.00 0.00 71 1013.9
20220627054514 21 96 0.0 3.2 0.00 0.00 0.00 70 1014.1
20220627053013 21 105 0.0 0.0 0.00 0.00 0.00 70 1014.0
20220627051512 21 104 0.0 1.6 0.00 0.00 0.00 70 1014.1
20220627050010 21 108 0.0 1.6 0.00 0.00 0.00 68 1014.0
20220627044508 22 51 0.0 3.2 0.00 0.00 0.00 66 1014.0
20220627043011 22 123 0.0 3.2 0.00 0.00 0.00 65 1014.2
20220627041502 22 115 0.0 1.6 0.00 0.00 0.00 63 1014.3
20220627040059 22 149 0.0 3.2 0.00 0.00 0.00 62 1014.3
20220627034558 23 205 0.0 3.2 0.00 0.00 0.00 61 1014.6
20220627033057 23 128 0.0 3.2 0.00 0.00 0.00 60 1014.7
20220627031557 23 79 0.0 3.2 0.00 0.00 0.00 59 1014.8
20220627030056 23 168 0.0 6.4 0.00 0.00 0.00 58 1014.8
20220627024557 24 165 0.0 4.8 0.00 0.00 0.00 59 1014.8
20220627023055 24 224 0.0 6.4 0.00 0.00 0.00 59 1014.8
20220627021553 25 64 0.0 6.4 0.00 0.00 0.00 59 1015.0
20220627020104 25 203 0.0 6.4 0.00 0.00 0.00 59 1014.9
20220627014552 25 193 0.0 6.4 0.00 0.00 0.00 60 1014.8
20220627013053 25 134 0.0 8.0 0.00 0.00 0.00 62 1014.6
20220627011602 26 78 0.0 4.8 0.00 0.00 0.00 63 1014.5
20220627010052 26 63 0.0 4.8 0.00 0.00 0.00 62 1014.3
20220627004551 26 222 0.0 9.7 0.00 0.00 0.00 61 1014.1
20220627003050 27 197 0.0 6.4 0.00 0.00 0.00 59 1014.2
20220627001549 27 138 0.0 6.4 0.00 0.00 0.00 58 1014.1
20220627000049 27 104 0.0 6.4 0.00 0.00 0.00 57 1014.0
20220626234551 28 218 0.0 8.0 0.00 0.00 0.00 57 1013.9
20220626233047 28 142 0.0 8.0 0.00 0.00 0.00 56 1014.0
20220626231547 29 208 1.6 8.0 0.00 0.00 0.00 55 1013.8
20220626230047 30 210 0.0 11.3 0.00 0.00 0.00 54 1013.5
20220626224547 30 226 0.0 4.8 0.00 0.00 0.00 55 1013.5
20220626223102 31 142 0.0 4.8 0.00 0.00 0.00 53 1013.3
20220626221545 31 140 0.0 4.8 0.00 0.00 0.00 51 1013.1
20220626220044 32 174 0.0 6.4 0.00 0.00 0.00 48 1013.2
20220626214543 32 145 0.0 9.7 0.00 0.00 0.00 47 1013.4
20220626213042 32 146 0.0 4.8 0.00 0.00 0.00 44 1013.3
20220626211541 32 113 0.0 4.8 0.00 0.00 0.00 46 1013.5
20220626210049 32 197 0.0 9.7 0.00 0.00 0.00 46 1013.6
20220626204539 32 71 1.6 6.4 0.00 0.00 0.00 43 1013.7
20220626203039 32 122 1.6 8.0 0.00 0.00 0.00 42 1013.9